This is the latest recevied weather packets stored in our database for station/object E22ZMG-1. If no packets are shown the sender has not sent any weather packets the latest 10 day(s).
| Time | Temp. | Humidity | Pressure | Rain* | Wind** | Luminosity | Snow |
|---|---|---|---|---|---|---|---|
| 1777902371 | 32.22° C | 43% | 974 hPa | - | - | 0 W/m² | - |
| 1777901746 | 33.89° C | 39% | 974 hPa | - | - | 0 W/m² | - |
| 1777901121 | 33.89° C | 40% | 973 hPa | - | - | 0 W/m² | - |
| 1777900496 | 33.89° C | 41% | 973 hPa | - | - | 0 W/m² | - |
| 1777899868 | 34.44° C | 41% | 973 hPa | - | - | 0 W/m² | - |
| 1777899243 | 37.22° C | 36% | 973 hPa | - | - | 0 W/m² | - |
| 1777898617 | 37.78° C | 35% | 973 hPa | - | - | 0 W/m² | - |
| 1777897992 | 38.89° C | 33% | 973 hPa | - | - | 0 W/m² | - |
| 1777897366 | 38.89° C | 32% | 972 hPa | - | - | 0 W/m² | - |
| 1777896740 | 39.44° C | 32% | 972 hPa | - | - | 0 W/m² | - |
| 1777896115 | 39.44° C | 32% | 972 hPa | - | - | 0 W/m² | - |
| 1777895490 | 40° C | 32% | 972 hPa | - | - | 0 W/m² | - |
| 1777894862 | 38.89° C | 33% | 972 hPa | - | - | 0 W/m² | - |
| 1777894238 | 40° C | 31% | 971 hPa | - | - | 0 W/m² | - |
| 1777893613 | 39.44° C | 32% | 971 hPa | - | - | 0 W/m² | - |
| 1777892989 | 38.89° C | 32% | 971 hPa | - | - | 0 W/m² | - |
| 1777892362 | 41.67° C | 27% | 971 hPa | - | - | 0 W/m² | - |
| 1777891737 | 41.67° C | 27% | 970 hPa | - | - | 0 W/m² | - |
| 1777891110 | 41.67° C | 27% | 970 hPa | - | - | 0 W/m² | - |
| 1777890485 | 41.67° C | 26% | 970 hPa | - | - | 0 W/m² | - |
| 1777889859 | 42.22° C | 25% | 970 hPa | - | - | 0 W/m² | - |
| 1777889233 | 42.22° C | 25% | 970 hPa | - | - | 0 W/m² | - |
| 1777888607 | 42.22° C | 26% | 970 hPa | - | - | 0 W/m² | - |
| 1777887983 | 42.22° C | 25% | 970 hPa | - | - | 0 W/m² | - |
| 1777887357 | 42.22° C | 26% | 970 hPa | - | - | 0 W/m² | - |
* Rain since midnight (hover to see other rain measurements)
** Current wind speed in m/s (hover to see current wind gust speed)